Regional Weather Roundup
Issued by NWS

Home | Current Version | Previous Version | Text Only | Print | Product List | Glossary Off
Versions: 1 2 3 4 5 6 7 8 9 10 11 12 13 14 15 16 17 18 19 20 21 22 23 24 25 26 27 28 29 30 31 32 33 34 35 36 37 38 39 40 41 42 43 44 45 46 47 48 49 50

000
ASUS43 KFSD 291402
RWRSD

WEATHER ROUNDUP FOR SOUTH DAKOTA
NATIONAL WEATHER SERVICE SIOUX FALLS SD
900 AM CDT WED JUL 29 2015

NOTE: "FAIR" INDICATES FEW OR NO CLOUDS BELOW 12,000 FEET WITH NO
SIGNIFICANT WEATHER AND/OR OBSTRUCTIONS TO VISIBILITY.


SDZ001>005-009-010-012>017-291500-
NORTHWEST AND NORTH CENTRAL SOUTH DAKOTA

CITY           SKY/WX    TMP DP  RH WIND       PRES   REMARKS
BUFFALO          N/A     64  41  42 W17       30.12R
FAITH            N/A     67  39  35 W20       30.16R
MOBRIDGE       SUNNY     69  48  47 W12       30.05R
$$

SDZ012>016-024>037-041>051-057-063-072>074-291500-
SOUTHWEST AND SOUTH CENTRAL SOUTH DAKOTA

CITY           SKY/WX    TMP DP  RH WIND       PRES   REMARKS
RAPID CTY ARPT SUNNY     67  45  45 W14       30.24S
PIERRE         SUNNY     69  45  41 W16       30.12R
CUSTER         SUNNY     59  37  44 W5        30.36R
ELLSWORTH AFB  SUNNY     67  44  42 W8        30.24R
PHILIP         SUNNY     65  52  62 SW10      30.19R
PINE RIDGE     SUNNY     62  46  55 W5        30.30R
WINNER         FAIR      72  47  40 SW10      30.19R
$$

SDZ004>011-016>023-039-040-291500-
NORTHEAST SOUTH DAKOTA

CITY           SKY/WX    TMP DP  RH WIND       PRES   REMARKS
ABERDEEN       SUNNY     67  51  56 SW9       30.02R
WATERTOWN      SUNNY     66  50  56 W13       30.04R
BROOKINGS      SUNNY     64  52  63 W12       30.10R
SISSETON         N/A     71  51  49 NW21G37   29.94R
$$

SDZ017-020-022-023-036>040-048>070-291500-
SOUTHEAST SOUTH DAKOTA

CITY           SKY/WX    TMP DP  RH WIND       PRES   REMARKS
SIOUX FALLS    MOSUNNY   67  53  61 W7        30.12R
HURON          SUNNY     68  51  54 W10       30.08R
CHAMBERLAIN    SUNNY     67  47  49 W15G22    30.15R
MITCHELL       SUNNY     70  51  51 W10       30.12R
YANKTON        SUNNY     70  55  60 SW12      30.15R
$$

ABBREVIATIONS USED IN REMARKS
   TC - TEMPERATURE IN CELSIUS
  WCI - WIND CHILL INDEX
   HX - HEAT INDEX
  VSB - VISIBILITY




USA.gov is the U.S. government's official web portal to all federal, state and local government web resources and services.